Time,TemperatureF,DewpointF,PressureIn,WindDirection,WindDirectionDegrees,WindSpeedMPH,WindSpeedGustMPH,Humidity,HourlyPrecipIn,Conditions,Clouds,dailyrainin,SoftwareType,DateUTC
2013-02-23 00:11:00,44.6,41.8,30.22,NNE,30,0.0,1.0,90,0.00,,---,0.00,VWS V14.01,2013-02-23 08:11:00,
2013-02-23 00:21:00,45.3,42.5,30.21,North,358,0.0,0.0,90,0.00,,---,0.00,VWS V14.01,2013-02-23 08:21:00,
2013-02-23 00:28:00,45.7,42.6,30.22,NW,305,0.0,1.0,89,0.00,,---,0.00,VWS V14.01,2013-02-23 08:28:00,
2013-02-23 00:41:00,46.2,43.1,30.21,North,356,0.0,2.0,89,0.00,,---,0.00,VWS V14.01,2013-02-23 08:41:00,
2013-02-23 00:51:00,46.7,43.3,30.21,North,353,0.0,2.0,88,0.00,,---,0.00,VWS V14.01,2013-02-23 08:51:00,
2013-02-23 00:58:00,46.5,43.1,30.21,NNE,13,0.0,2.0,88,0.00,,---,0.00,VWS V14.01,2013-02-23 08:58:00,
2013-02-23 01:11:00,46.2,43.1,30.20,North,360,0.0,1.0,89,0.00,,---,0.00,VWS V14.01,2013-02-23 09:11:00,
2013-02-23 01:21:00,46.3,43.5,30.20,NNW,335,0.0,1.0,90,0.00,,---,0.00,VWS V14.01,2013-02-23 09:21:00,
2013-02-23 01:28:00,46.5,44.0,30.20,NNW,340,0.0,1.0,91,0.00,,---,0.00,VWS V14.01,2013-02-23 09:28:00,
2013-02-23 01:41:00,47.0,44.8,30.20,North,356,0.0,1.0,92,0.00,,---,0.00,VWS V14.01,2013-02-23 09:41:00,
2013-02-23 01:51:00,47.0,45.1,30.20,NNE,30,0.0,3.0,93,0.00,,---,0.00,VWS V14.01,2013-02-23 09:51:00,
2013-02-23 01:58:00,46.8,44.9,30.20,North,1,0.0,1.0,93,0.00,,---,0.00,VWS V14.01,2013-02-23 09:58:00,
2013-02-23 02:11:00,46.9,45.8,30.19,WSW,243,0.0,3.0,96,0.00,,---,0.00,VWS V14.01,2013-02-23 10:11:00,
2013-02-23 02:21:00,47.3,45.9,30.19,NW,319,0.0,2.0,95,0.00,,---,0.00,VWS V14.01,2013-02-23 10:21:00,
2013-02-23 02:28:00,47.4,46.0,30.19,North,356,0.0,1.0,95,0.00,,---,0.00,VWS V14.01,2013-02-23 10:28:00,
2013-02-23 02:41:00,47.0,45.3,30.18,NW,308,0.0,2.0,94,0.00,,---,0.00,VWS V14.01,2013-02-23 10:41:00,
2013-02-23 02:51:00,47.0,45.3,30.18,NW,308,0.0,0.0,94,0.00,,---,0.00,VWS V14.01,2013-02-23 10:51:00,
2013-02-23 02:58:00,47.0,45.3,30.18,NW,308,0.0,0.0,94,0.00,,---,0.00,VWS V14.01,2013-02-23 10:58:00,
2013-02-23 03:11:00,47.0,45.3,30.17,NW,308,0.0,0.0,94,0.00,,---,0.00,VWS V14.01,2013-02-23 11:11:00,
2013-02-23 03:21:00,47.0,45.3,30.17,NW,308,0.0,0.0,94,0.00,,---,0.00,VWS V14.01,2013-02-23 11:21:00,
2013-02-23 03:28:00,47.0,45.3,30.17,NW,308,0.0,0.0,94,0.00,,---,0.00,VWS V14.01,2013-02-23 11:28:00,
2013-02-23 03:41:00,47.0,45.3,30.17,NW,308,0.0,0.0,94,0.00,,---,0.00,VWS V14.01,2013-02-23 11:41:00,
2013-02-23 03:51:00,47.0,45.3,30.17,NW,308,0.0,0.0,94,0.00,,---,0.00,VWS V14.01,2013-02-23 11:51:00,
2013-02-23 03:58:00,47.0,45.3,30.17,NW,308,0.0,0.0,94,0.00,,---,0.00,VWS V14.01,2013-02-23 11:58:00,
2013-02-23 04:11:00,47.0,45.3,30.17,NW,308,0.0,0.0,94,0.00,,---,0.00,VWS V14.01,2013-02-23 12:11:00,
2013-02-23 04:21:00,47.0,45.3,30.17,NW,308,0.0,0.0,94,0.00,,---,0.00,VWS V14.01,2013-02-23 12:21:00,
2013-02-23 04:29:00,47.0,45.3,30.18,NW,308,0.0,0.0,94,0.00,,---,0.00,VWS V14.01,2013-02-23 12:29:00,
2013-02-23 04:41:00,47.0,45.3,30.19,NW,308,0.0,0.0,94,0.00,,---,0.00,VWS V14.01,2013-02-23 12:41:00,
2013-02-23 04:51:00,47.0,45.3,30.18,NW,308,0.0,0.0,94,0.00,,---,0.00,VWS V14.01,2013-02-23 12:51:00,
2013-02-23 04:59:00,47.0,45.3,30.19,NW,308,0.0,0.0,94,0.00,,---,0.00,VWS V14.01,2013-02-23 12:59:00,
2013-02-23 05:11:00,47.0,45.3,30.20,NW,308,0.0,0.0,94,0.00,,---,0.00,VWS V14.01,2013-02-23 13:11:00,
2013-02-23 05:21:00,47.0,45.3,30.20,NW,308,0.0,0.0,94,0.00,,---,0.00,VWS V14.01,2013-02-23 13:21:00,
2013-02-23 05:29:00,47.0,45.3,30.21,NW,308,0.0,0.0,94,0.00,,---,0.00,VWS V14.01,2013-02-23 13:29:00,
2013-02-23 05:41:00,47.0,45.3,30.21,NW,308,0.0,0.0,94,0.00,,---,0.00,VWS V14.01,2013-02-23 13:41:00,
2013-02-23 05:51:00,47.0,45.3,30.21,NW,308,0.0,0.0,94,0.00,,---,0.00,VWS V14.01,2013-02-23 13:51:00,
2013-02-23 05:59:00,47.0,45.3,30.22,NW,308,0.0,0.0,94,0.00,,---,0.00,VWS V14.01,2013-02-23 13:59:00,
2013-02-23 06:11:00,47.0,45.3,30.23,NW,308,0.0,0.0,94,0.00,,---,0.00,VWS V14.01,2013-02-23 14:11:00,
2013-02-23 06:21:00,47.0,45.3,30.23,NW,308,0.0,0.0,94,0.00,,---,0.00,VWS V14.01,2013-02-23 14:21:00,
2013-02-23 06:29:00,47.0,45.3,30.24,NW,308,0.0,0.0,94,0.00,,---,0.00,VWS V14.01,2013-02-23 14:29:00,
2013-02-23 06:41:00,47.0,45.3,30.23,NW,308,0.0,0.0,94,0.00,,---,0.00,VWS V14.01,2013-02-23 14:41:00,
2013-02-23 06:51:00,47.0,45.3,30.24,NW,308,0.0,0.0,94,0.00,,---,0.00,VWS V14.01,2013-02-23 14:51:00,
2013-02-23 06:59:00,47.0,45.3,30.24,NW,308,0.0,0.0,94,0.00,,---,0.00,VWS V14.01,2013-02-23 14:59:00,
2013-02-23 07:11:00,47.0,45.3,30.25,NW,308,0.0,0.0,94,0.00,,---,0.00,VWS V14.01,2013-02-23 15:11:00,
2013-02-23 07:21:00,47.0,45.3,30.25,NW,308,0.0,0.0,94,0.00,,---,0.00,VWS V14.01,2013-02-23 15:21:00,
2013-02-23 07:29:00,47.0,45.3,30.25,NW,308,0.0,0.0,94,0.00,,---,0.00,VWS V14.01,2013-02-23 15:29:00,
2013-02-23 07:41:00,47.0,45.3,30.26,NW,308,0.0,0.0,94,0.00,,---,0.00,VWS V14.01,2013-02-23 15:41:00,
2013-02-23 07:51:00,47.0,45.3,30.26,NW,308,0.0,0.0,94,0.00,,---,0.00,VWS V14.01,2013-02-23 15:51:00,
2013-02-23 07:59:00,47.0,45.3,30.27,NW,308,0.0,0.0,94,0.00,,---,0.00,VWS V14.01,2013-02-23 15:59:00,
2013-02-23 08:11:00,47.0,45.3,30.26,NW,308,0.0,0.0,94,0.00,,---,0.00,VWS V14.01,2013-02-23 16:11:00,
2013-02-23 08:21:00,47.0,45.3,30.27,NW,308,0.0,0.0,94,0.00,,---,0.00,VWS V14.01,2013-02-23 16:21:00,
2013-02-23 08:29:00,47.0,45.3,30.27,NW,308,0.0,0.0,94,0.00,,---,0.00,VWS V14.01,2013-02-23 16:29:00,
2013-02-23 08:41:00,47.0,45.3,30.26,NW,308,0.0,0.0,94,0.00,,---,0.00,VWS V14.01,2013-02-23 16:41:00,
2013-02-23 08:51:00,47.0,45.3,30.27,NW,308,0.0,0.0,94,0.00,,---,0.00,VWS V14.01,2013-02-23 16:51:00,
2013-02-23 08:59:00,47.4,32.5,30.27,NW,316,1.0,3.0,56,0.00,,---,0.00,VWS V14.01,2013-02-23 16:59:00,
2013-02-23 09:11:00,47.7,33.2,30.27,WNW,286,0.0,4.0,57,0.00,,---,0.00,VWS V14.01,2013-02-23 17:11:00,
2013-02-23 09:21:00,47.9,32.5,30.28,West,281,0.0,2.0,55,0.00,,---,0.00,VWS V14.01,2013-02-23 17:21:00,
2013-02-23 09:29:00,48.3,32.0,30.27,WNW,303,0.0,5.0,53,0.00,,---,0.00,VWS V14.01,2013-02-23 17:29:00,
2013-02-23 09:41:00,48.9,30.6,30.27,WNW,298,2.0,4.0,49,0.00,,---,0.00,VWS V14.01,2013-02-23 17:41:00,
2013-02-23 09:51:00,49.2,30.3,30.27,NW,305,0.0,3.0,48,0.00,,---,0.00,VWS V14.01,2013-02-23 17:51:00,
2013-02-23 09:59:00,49.5,30.1,30.27,NW,313,4.0,5.0,47,0.00,,---,0.00,VWS V14.01,2013-02-23 17:59:00,
2013-02-23 10:11:00,49.7,30.8,30.27,WNW,299,2.0,8.0,48,0.00,,---,0.00,VWS V14.01,2013-02-23 18:11:00,
2013-02-23 10:21:00,50.0,30.5,30.27,NNW,340,1.0,3.0,47,0.00,,---,0.00,VWS V14.01,2013-02-23 18:21:00,
2013-02-23 10:29:00,50.1,30.6,30.27,WNW,298,2.0,2.0,47,0.00,,---,0.00,VWS V14.01,2013-02-23 18:29:00,
2013-02-23 10:41:00,50.9,29.8,30.27,NW,316,1.0,5.0,44,0.00,,---,0.00,VWS V14.01,2013-02-23 18:41:00,
2013-02-23 10:51:00,51.1,29.4,30.26,NW,316,0.0,4.0,43,0.00,,---,0.00,VWS V14.01,2013-02-23 18:51:00,
2013-02-23 10:59:00,51.2,30.0,30.26,WNW,286,3.0,4.0,44,0.00,,---,0.00,VWS V14.01,2013-02-23 18:59:00,
2013-02-23 11:11:00,51.8,30.0,30.26,NW,315,1.0,3.0,43,0.00,,---,0.00,VWS V14.01,2013-02-23 19:11:00,
2013-02-23 11:21:00,51.9,29.5,30.26,NW,311,0.0,4.0,42,0.00,,---,0.00,VWS V14.01,2013-02-23 19:21:00,
2013-02-23 11:29:00,51.9,30.1,30.25,NW,311,0.0,2.0,43,0.00,,---,0.00,VWS V14.01,2013-02-23 19:29:00,
2013-02-23 11:41:00,52.3,29.3,30.25,NNW,328,0.0,2.0,41,0.00,,---,0.00,VWS V14.01,2013-02-23 19:41:00,
2013-02-23 11:51:00,52.4,29.4,30.25,NW,308,0.0,2.0,41,0.00,,---,0.00,VWS V14.01,2013-02-23 19:51:00,
2013-02-23 11:59:00,52.6,29.6,30.25,NNW,330,0.0,2.0,41,0.00,,---,0.00,VWS V14.01,2013-02-23 19:59:00,
2013-02-23 12:11:00,52.8,28.5,30.25,NW,318,1.0,4.0,39,0.00,,---,0.00,VWS V14.01,2013-02-23 20:11:00,
2013-02-23 12:21:00,52.9,29.8,30.24,WNW,297,0.0,3.0,41,0.00,,---,0.00,VWS V14.01,2013-02-23 20:21:00,
2013-02-23 12:29:00,53.1,30.0,30.24,WNW,298,2.0,2.0,41,0.00,,---,0.00,VWS V14.01,2013-02-23 20:29:00,
2013-02-23 12:41:00,53.4,29.0,30.23,NW,309,2.0,4.0,39,0.00,,---,0.00,VWS V14.01,2013-02-23 20:41:00,
2013-02-23 12:51:00,53.6,29.2,30.22,WNW,302,3.0,4.0,39,0.00,,---,0.00,VWS V14.01,2013-02-23 20:51:00,
2013-02-23 12:59:00,53.7,29.9,30.22,NW,308,2.0,5.0,40,0.00,,---,0.00,VWS V14.01,2013-02-23 20:59:00,
2013-02-23 13:11:00,53.9,30.1,30.22,WNW,302,3.0,3.0,40,0.00,,---,0.00,VWS V14.01,2013-02-23 21:11:00,
2013-02-23 13:21:00,54.1,30.3,30.21,NW,311,3.0,4.0,40,0.00,,---,0.00,VWS V14.01,2013-02-23 21:21:00,
2013-02-23 13:29:00,54.3,29.2,30.21,WNW,302,2.0,4.0,38,0.00,,---,0.00,VWS V14.01,2013-02-23 21:29:00,
2013-02-23 13:41:00,54.1,30.9,30.21,WNW,297,0.0,2.0,41,0.00,,---,0.00,VWS V14.01,2013-02-23 21:41:00,
2013-02-23 13:51:00,54.4,31.2,30.20,NW,307,3.0,3.0,41,0.00,,---,0.00,VWS V14.01,2013-02-23 21:51:00,
2013-02-23 13:59:00,54.6,30.8,30.20,WNW,302,0.0,4.0,40,0.00,,---,0.00,VWS V14.01,2013-02-23 21:59:00,
2013-02-23 14:11:00,54.8,30.3,30.20,WNW,293,0.0,2.0,39,0.00,,---,0.00,VWS V14.01,2013-02-23 22:11:00,
2013-02-23 14:21:00,54.8,30.3,30.19,WNW,287,1.0,2.0,39,0.00,,---,0.00,VWS V14.01,2013-02-23 22:21:00,
2013-02-23 14:29:00,54.9,29.8,30.20,WNW,300,0.0,3.0,38,0.00,,---,0.00,VWS V14.01,2013-02-23 22:29:00,
2013-02-23 14:41:00,55.1,30.6,30.19,WNW,296,0.0,2.0,39,0.00,,---,0.00,VWS V14.01,2013-02-23 22:41:00,
2013-02-23 14:51:00,55.2,31.3,30.19,WNW,300,0.0,3.0,40,0.00,,---,0.00,VWS V14.01,2013-02-23 22:51:00,
2013-02-23 14:59:00,55.1,31.8,30.18,WNW,288,0.0,3.0,41,0.00,,---,0.00,VWS V14.01,2013-02-23 22:59:00,
2013-02-23 15:11:00,55.1,31.2,30.18,NW,324,1.0,4.0,40,0.00,,---,0.00,VWS V14.01,2013-02-23 23:11:00,
2013-02-23 15:21:00,55.1,31.2,30.18,NW,308,1.0,4.0,40,0.00,,---,0.00,VWS V14.01,2013-02-23 23:21:00,
2013-02-23 15:29:00,55.0,32.3,30.17,WNW,290,1.0,3.0,42,0.00,,---,0.00,VWS V14.01,2013-02-23 23:29:00,
2013-02-23 15:41:00,55.1,33.6,30.18,WNW,284,2.0,4.0,44,0.00,,---,0.00,VWS V14.01,2013-02-23 23:41:00,
2013-02-23 15:51:00,54.9,32.2,30.18,SSW,209,1.0,3.0,42,0.00,,---,0.00,VWS V14.01,2013-02-23 23:51:00,
2013-02-23 15:59:00,54.8,32.7,30.18,WNW,300,0.0,2.0,43,0.00,,---,0.00,VWS V14.01,2013-02-23 23:59:00,
2013-02-23 16:11:00,54.6,34.2,30.18,West,260,1.0,1.0,46,0.00,,---,0.00,VWS V14.01,2013-02-24 00:11:00,
2013-02-23 16:21:00,53.7,32.9,30.18,West,274,0.0,1.0,45,0.00,,---,0.00,VWS V14.01,2013-02-24 00:21:00,
2013-02-23 16:29:00,53.9,35.2,30.18,WNW,298,0.0,1.0,49,0.00,,---,0.00,VWS V14.01,2013-02-24 00:29:00,
2013-02-23 16:41:00,53.6,36.9,30.18,WNW,301,0.0,5.0,53,0.00,,---,0.00,VWS V14.01,2013-02-24 00:41:00,
2013-02-23 16:51:00,53.2,37.0,30.18,West,264,1.0,4.0,54,0.00,,---,0.00,VWS V14.01,2013-02-24 00:51:00,
2013-02-23 16:59:00,53.0,36.8,30.19,WNW,296,1.0,3.0,54,0.00,,---,0.00,VWS V14.01,2013-02-24 00:59:00,
2013-02-23 17:11:00,52.6,36.9,30.19,NE,34,0.0,4.0,55,0.00,,---,0.00,VWS V14.01,2013-02-24 01:11:00,
2013-02-23 17:21:00,52.3,37.1,30.20,WNW,288,1.0,2.0,56,0.00,,---,0.00,VWS V14.01,2013-02-24 01:21:00,
2013-02-23 17:29:00,51.9,37.1,30.20,North,352,0.0,4.0,57,0.00,,---,0.00,VWS V14.01,2013-02-24 01:29:00,
2013-02-23 17:41:00,51.4,37.5,30.21,WNW,295,1.0,4.0,59,0.00,,---,0.00,VWS V14.01,2013-02-24 01:41:00,
2013-02-23 17:51:00,51.1,37.3,30.21,WNW,302,0.0,2.0,59,0.00,,---,0.00,VWS V14.01,2013-02-24 01:51:00,
2013-02-23 17:59:00,50.8,37.0,30.21,NW,308,0.0,1.0,59,0.00,,---,0.00,VWS V14.01,2013-02-24 01:59:00,
2013-02-23 18:11:00,50.4,37.0,30.21,WNW,287,0.0,2.0,60,0.00,,---,0.00,VWS V14.01,2013-02-24 02:11:00,
2013-02-23 18:21:00,50.3,36.9,30.21,West,276,0.0,2.0,60,0.00,,---,0.00,VWS V14.01,2013-02-24 02:21:00,
2013-02-23 18:29:00,50.1,36.8,30.22,WNW,302,0.0,2.0,60,0.00,,---,0.00,VWS V14.01,2013-02-24 02:29:00,
2013-02-23 18:41:00,49.7,36.8,30.23,NW,316,0.0,2.0,61,0.00,,---,0.00,VWS V14.01,2013-02-24 02:41:00,
2013-02-23 18:51:00,49.3,36.4,30.22,NW,308,0.0,2.0,61,0.00,,---,0.00,VWS V14.01,2013-02-24 02:51:00,
2013-02-23 18:59:00,49.1,35.8,30.22,WNW,295,1.0,2.0,60,0.00,,---,0.00,VWS V14.01,2013-02-24 02:59:00,
2013-02-23 19:11:00,48.6,37.0,30.23,NNW,343,0.0,1.0,64,0.00,,---,0.00,VWS V14.01,2013-02-24 03:11:00,
2013-02-23 19:21:00,47.9,36.3,30.23,West,269,0.0,1.0,64,0.00,,---,0.00,VWS V14.01,2013-02-24 03:21:00,
2013-02-23 19:29:00,47.3,35.3,30.23,West,269,0.0,1.0,63,0.00,,---,0.00,VWS V14.01,2013-02-24 03:29:00,
2013-02-23 19:41:00,47.0,36.2,30.23,West,269,0.0,0.0,66,0.00,,---,0.00,VWS V14.01,2013-02-24 03:41:00,
2013-02-23 19:51:00,46.8,35.7,30.23,West,269,0.0,0.0,65,0.00,,---,0.00,VWS V14.01,2013-02-24 03:51:00,
2013-02-23 19:59:00,46.7,36.3,30.23,WNW,298,0.0,1.0,67,0.00,,---,0.00,VWS V14.01,2013-02-24 03:59:00,
2013-02-23 20:11:00,46.3,35.9,30.23,NNW,343,0.0,0.0,67,0.00,,---,0.00,VWS V14.01,2013-02-24 04:11:00,
2013-02-23 20:21:00,46.0,35.7,30.23,West,280,0.0,1.0,67,0.00,,---,0.00,VWS V14.01,2013-02-24 04:21:00,
2013-02-23 20:29:00,45.9,35.9,30.24,West,280,0.0,1.0,68,0.00,,---,0.00,VWS V14.01,2013-02-24 04:29:00,
2013-02-23 20:41:00,45.8,35.1,30.24,West,279,0.0,0.0,66,0.00,,---,0.00,VWS V14.01,2013-02-24 04:41:00,
2013-02-23 20:51:00,45.7,35.0,30.24,South,170,0.0,1.0,66,0.00,,---,0.00,VWS V14.01,2013-02-24 04:51:00,
2013-02-23 20:59:00,45.8,35.5,30.25,South,170,0.0,1.0,67,0.00,,---,0.00,VWS V14.01,2013-02-24 04:59:00,
2013-02-23 21:01:00,45.7,35.7,30.25,South,170,0.0,1.0,68,0.00,,---,0.00,VWS V14.01,2013-02-24 05:01:00,
2013-02-23 21:11:00,45.7,35.4,30.25,South,170,0.0,1.0,67,0.00,,---,0.00,VWS V14.01,2013-02-24 05:11:00,
2013-02-23 21:21:00,45.5,35.2,30.25,South,170,0.0,0.0,67,0.00,,---,0.00,VWS V14.01,2013-02-24 05:21:00,
2013-02-23 21:29:00,45.4,35.5,30.25,South,170,0.0,0.0,68,0.00,,---,0.00,VWS V14.01,2013-02-24 05:29:00,
2013-02-23 21:41:00,45.1,35.5,30.25,South,170,0.0,0.0,69,0.00,,---,0.00,VWS V14.01,2013-02-24 05:41:00,
2013-02-23 21:51:00,45.0,35.8,30.25,SE,140,0.0,1.0,70,0.00,,---,0.00,VWS V14.01,2013-02-24 05:51:00,
2013-02-23 21:59:00,44.1,36.3,30.25,ENE,70,0.0,1.0,74,0.00,,---,0.00,VWS V14.01,2013-02-24 05:59:00,
2013-02-23 22:11:00,44.0,35.9,30.25,ENE,70,0.0,0.0,73,0.00,,---,0.00,VWS V14.01,2013-02-24 06:11:00,
2013-02-23 22:21:00,43.5,37.1,30.25,NNW,340,0.0,1.0,78,0.00,,---,0.00,VWS V14.01,2013-02-24 06:21:00,
2013-02-23 22:29:00,43.1,36.7,30.26,NNW,341,0.0,0.0,78,0.00,,---,0.00,VWS V14.01,2013-02-24 06:29:00,
2013-02-23 22:41:00,42.8,35.8,30.25,NNW,342,0.0,0.0,76,0.00,,---,0.00,VWS V14.01,2013-02-24 06:41:00,
2013-02-23 22:51:00,42.6,35.9,30.26,NNW,342,0.0,0.0,77,0.00,,---,0.00,VWS V14.01,2013-02-24 06:51:00,
2013-02-23 22:59:00,42.5,36.8,30.25,NNW,342,0.0,0.0,80,0.00,,---,0.00,VWS V14.01,2013-02-24 06:59:00,
2013-02-23 23:11:00,42.0,36.3,30.25,NNW,342,0.0,0.0,80,0.00,,---,0.00,VWS V14.01,2013-02-24 07:11:00,
2013-02-23 23:21:00,41.6,36.5,30.26,NNW,342,0.0,0.0,82,0.00,,---,0.00,VWS V14.01,2013-02-24 07:21:00,
2013-02-23 23:29:00,41.3,36.2,30.25,NNW,340,0.0,0.0,82,0.00,,---,0.00,VWS V14.01,2013-02-24 07:29:00,
2013-02-23 23:41:00,40.7,35.6,30.26,NE,38,0.0,1.0,82,0.00,,---,0.00,VWS V14.01,2013-02-24 07:41:00,
2013-02-23 23:51:00,40.4,35.6,30.26,NNE,25,0.0,1.0,83,0.00,,---,0.00,VWS V14.01,2013-02-24 07:51:00,
2013-02-23 23:59:00,40.4,36.2,30.26,NNE,25,0.0,0.0,85,0.00,,---,0.00,VWS V14.01,2013-02-24 07:59:00,